Back to catalog

O3B FM6

AliveCommunicationsMEO
NORAD 40081·PAYLOAD·🇱🇺 Luxembourg

Launched Jul 10, 2014 from Guiana Space Centre

Loading…

Next Passes (next 24 hours)

TLE

FreshSource: CelesTrak SupGP

Epoch: Sep 13, 2026, 13:00 UTC

1 40081C 14038C   26256.54166667  .00000000  00000+0  00000+0 0  2565
2 40081   0.0459 352.9226 0002577 178.9635  28.3350  5.00115904    19

Track O3B FM6 in real time with AllMySat

Download on the App Store